• In Hungary
  • List of Countries
  • For 7 days
  • Water Temperature
  • Satellite Maps
  • Weather Map
  • News
  • Weather Widgets
  • user-avatar
    Login

    Hourly Weather Sakkhar

    Today, 20 August, Sunday

    Time Temperature Precipitation Wind Pressure Humidity
    00:00 +39°C° 0 mm 2 mps 745 mmHg 21%
    01:00 +38°C° 0 mm 3 mps 745 mmHg 23%
    02:00 +38°C° 0 mm 4 mps 745 mmHg 25%
    03:00 +37°C° 0 mm 3 mps 745 mmHg 30%
    04:00 +36°C° 0 mm 3 mps 745 mmHg 36%
    05:00 +35°C° 0 mm 3 mps 745 mmHg 41%
    06:00 +36°C° 0 mm 3 mps 745 mmHg 42%
    07:00 +36°C° 0 mm 3 mps 746 mmHg 42%
    08:00 +37°C° 0 mm 3 mps 746 mmHg 43%
    09:00 +39°C° 0 mm 2 mps 746 mmHg 35%
    10:00 +41°C° 0 mm 1 mps 746 mmHg 28%
    11:00 +43°C° 0 mm 2 mps 746 mmHg 22%
    12:00 +45°C° 0 mm 2 mps 745 mmHg 20%
    13:00 +46°C° 0 mm 3 mps 745 mmHg 17%
    14:00 +47°C° 0 mm 3 mps 744 mmHg 15%
    15:00 +47°C° 0 mm 3 mps 744 mmHg 15%
    16:00 +47°C° 0 mm 3 mps 743 mmHg 14%
    17:00 +46°C° 0 mm 2 mps 743 mmHg 17%
    18:00 +45°C° 0 mm 3 mps 743 mmHg 18%
    19:00 +44°C° 0 mm 3 mps 744 mmHg 19%
    20:00 +43°C° 0 mm 3 mps 744 mmHg 20%
    21:00 +41°C° 0 mm 2 mps 744 mmHg 21%
    22:00 +41°C° 0 mm 2 mps 744 mmHg 22%
    23:00 +40°C° 0 mm 2 mps 744 mmHg 23%

    Tomorrow, 21 August, Monday

    Time Temperature Precipitation Wind Pressure Humidity
    00:00 +40°C° 0 mm 2 mps 744 mmHg 25%
    01:00 +39°C° 0 mm 2 mps 743 mmHg 26%
    02:00 +38°C° 0 mm 2 mps 743 mmHg 27%
    03:00 +38°C° 0 mm 2 mps 743 mmHg 28%
    04:00 +37°C° 0 mm 2 mps 743 mmHg 29%
    05:00 +37°C° 0 mm 2 mps 743 mmHg 30%
    06:00 +38°C° 0 mm 2 mps 743 mmHg 28%
    07:00 +39°C° 0 mm 2 mps 744 mmHg 26%
    08:00 +40°C° 0 mm 3 mps 744 mmHg 24%
    09:00 +43°C° 0 mm 3 mps 744 mmHg 22%
    10:00 +44°C° 0 mm 3 mps 744 mmHg 20%
    11:00 +46°C° 0 mm 3 mps 744 mmHg 18%
    12:00 +48°C° 0 mm 4 mps 743 mmHg 17%
    13:00 +49°C° 0 mm 4 mps 743 mmHg 16%
    14:00 +50°C° 0 mm 5 mps 742 mmHg 15%
    15:00 +50°C° 0 mm 5 mps 741 mmHg 15%
    16:00 +50°C° 0 mm 5 mps 741 mmHg 15%
    17:00 +50°C° 0 mm 5 mps 740 mmHg 15%
    18:00 +48°C° 0 mm 4 mps 740 mmHg 16%
    19:00 +47°C° 0 mm 4 mps 740 mmHg 17%
    20:00 +45°C° 0 mm 3 mps 741 mmHg 19%
    21:00 +44°C° 0 mm 3 mps 741 mmHg 21%
    22:00 +44°C° 0 mm 4 mps 741 mmHg 23%
    23:00 +43°C° 0 mm 4 mps 741 mmHg 24%

    Day after tomorrow, 22 August, Tuesday

    Time Temperature Precipitation Wind Pressure Humidity
    00:00 +43°C° 0 mm 4 mps 741 mmHg 27%
    01:00 +42°C° 0 mm 4 mps 741 mmHg 30%
    02:00 +42°C° 0 mm 3 mps 741 mmHg 33%
    03:00 +40°C° 0 mm 3 mps 742 mmHg 34%
    04:00 +40°C° 0 mm 2 mps 742 mmHg 36%
    05:00 +39°C° 0 mm 2 mps 742 mmHg 37%
    06:00 +40°C° 0 mm 2 mps 742 mmHg 36%
    07:00 +40°C° 0 mm 2 mps 743 mmHg 36%
    08:00 +42°C° 0 mm 3 mps 743 mmHg 35%
    09:00 +43°C° 0 mm 3 mps 744 mmHg 32%
    10:00 +45°C° 0 mm 3 mps 744 mmHg 30%
    11:00 +46°C° 0 mm 3 mps 744 mmHg 27%
    12:00 +47°C° 0 mm 4 mps 743 mmHg 26%
    13:00 +47°C° 0 mm 4 mps 743 mmHg 25%
    14:00 +48°C° 0 mm 5 mps 742 mmHg 24%
    15:00 +48°C° 0 mm 5 mps 742 mmHg 23%
    16:00 +48°C° 0 mm 5 mps 742 mmHg 23%
    17:00 +48°C° 0 mm 5 mps 741 mmHg 22%
    18:00 +47°C° 0 mm 4 mps 741 mmHg 23%
    19:00 +45°C° 0 mm 4 mps 742 mmHg 24%
    20:00 +44°C° 0 mm 3 mps 742 mmHg 25%
    21:00 +44°C° 0 mm 3 mps 742 mmHg 26%
    22:00 +43°C° 0 mm 3 mps 743 mmHg 27%
    23:00 +43°C° 0 mm 3 mps 743 mmHg 28%

    23 August, Wednesday

    Time Temperature Precipitation Wind Pressure Humidity
    00:00 +42°C° 0 mm 3 mps 743 mmHg 31%
    01:00 +40°C° 0 mm 3 mps 743 mmHg 34%
    02:00 +40°C° 0 mm 3 mps 743 mmHg 37%
    03:00 +39°C° 0 mm 3 mps 743 mmHg 40%
    04:00 +38°C° 0 mm 3 mps 743 mmHg 43%
    05:00 +38°C° 0 mm 3 mps 743 mmHg 45%
    06:00 +38°C° 0 mm 3 mps 744 mmHg 45%
    07:00 +39°C° 0 mm 3 mps 744 mmHg 44%
    08:00 +39°C° 0 mm 3 mps 745 mmHg 44%
    09:00 +42°C° 0 mm 3 mps 745 mmHg 39%
    10:00 +43°C° 0 mm 3 mps 745 mmHg 35%
    11:00 +45°C° 0 mm 3 mps 745 mmHg 30%
    12:00 +46°C° 0 mm 3 mps 745 mmHg 28%
    13:00 +46°C° 0 mm 3 mps 744 mmHg 26%
    14:00 +48°C° 0 mm 4 mps 743 mmHg 24%
    15:00 +48°C° 0 mm 4 mps 743 mmHg 23%
    16:00 +48°C° 0 mm 4 mps 743 mmHg 23%
    17:00 +48°C° 0 mm 4 mps 743 mmHg 23%
    18:00 +47°C° 0 mm 4 mps 743 mmHg 25%
    19:00 +46°C° 0 mm 5 mps 743 mmHg 27%
    20:00 +45°C° 0 mm 6 mps 743 mmHg 30%
    21:00 +44°C° 0 mm 6 mps 744 mmHg 33%
    22:00 +43°C° 0 mm 7 mps 744 mmHg 36%
    23:00 +41°C° 0 mm 7 mps 744 mmHg 39%

    24 August, Thursday

    Time Temperature Precipitation Wind Pressure Humidity
    00:00 +40°C° 0 mm 7 mps 744 mmHg 43%
    01:00 +39°C° 0 mm 6 mps 744 mmHg 46%
    02:00 +38°C° 0 mm 6 mps 744 mmHg 50%
    03:00 +38°C° 0 mm 6 mps 744 mmHg 51%
    04:00 +36°C° 0 mm 6 mps 744 mmHg 51%
    05:00 +36°C° 0 mm 5 mps 744 mmHg 52%
    06:00 +36°C° 0 mm 5 mps 745 mmHg 51%
    07:00 +38°C° 0 mm 6 mps 745 mmHg 49%
    08:00 +38°C° 0 mm 6 mps 745 mmHg 48%
    09:00 +40°C° 0 mm 6 mps 746 mmHg 43%
    10:00 +41°C° 0 mm 5 mps 746 mmHg 38%
    11:00 +43°C° 0 mm 5 mps 746 mmHg 32%
    12:00 +45°C° 0 mm 5 mps 745 mmHg 30%
    13:00 +46°C° 0 mm 5 mps 744 mmHg 28%
    14:00 +47°C° 0 mm 5 mps 743 mmHg 25%
    15:00 +47°C° 0 mm 5 mps 743 mmHg 25%
    16:00 +47°C° 0 mm 5 mps 743 mmHg 25%
    17:00 +47°C° 0 mm 4 mps 742 mmHg 24%
    18:00 +46°C° 0 mm 5 mps 742 mmHg 27%
    19:00 +44°C° 0 mm 6 mps 743 mmHg 30%
    20:00 +42°C° 0 mm 6 mps 743 mmHg 33%
    21:00 +41°C° 0 mm 7 mps 743 mmHg 38%
    22:00 +40°C° 0 mm 8 mps 743 mmHg 42%
    23:00 +38°C° 0 mm 8 mps 743 mmHg 46%

    25 August, Friday

    Time Temperature Precipitation Wind Pressure Humidity
    00:00 +37°C° 0 mm 8 mps 743 mmHg 49%
    01:00 +35°C° 0 mm 7 mps 743 mmHg 51%
    02:00 +35°C° 0 mm 7 mps 743 mmHg 54%
    03:00 +34°C° 0 mm 6 mps 743 mmHg 56%
    04:00 +33°C° 0 mm 6 mps 743 mmHg 58%
    05:00 +33°C° 0 mm 6 mps 743 mmHg 61%
    06:00 +33°C° 0 mm 6 mps 743 mmHg 60%
    07:00 +34°C° 0 mm 6 mps 744 mmHg 60%
    08:00 +34°C° 0 mm 5 mps 744 mmHg 59%
    09:00 +36°C° 0 mm 5 mps 744 mmHg 53%
    10:00 +38°C° 0 mm 4 mps 744 mmHg 46%
    11:00 +41°C° 0 mm 4 mps 744 mmHg 39%
    12:00 +43°C° 0 mm 4 mps 743 mmHg 35%
    13:00 +44°C° 0 mm 4 mps 742 mmHg 31%
    14:00 +46°C° 0 mm 3 mps 741 mmHg 27%
    15:00 +47°C° 0 mm 4 mps 741 mmHg 26%
    16:00 +47°C° 0 mm 4 mps 740 mmHg 25%
    17:00 +47°C° 0 mm 4 mps 739 mmHg 24%
    18:00 +46°C° 0 mm 5 mps 740 mmHg 27%
    19:00 +45°C° 0 mm 5 mps 740 mmHg 30%
    20:00 +42°C° 0 mm 6 mps 740 mmHg 33%
    21:00 +41°C° 0 mm 7 mps 740 mmHg 40%
    22:00 +39°C° 0 mm 7 mps 741 mmHg 47%
    23:00 +37°C° 0 mm 8 mps 741 mmHg 54%
    Show more